When you browse on this site, cookies collect data to enhance your experience and personalize the content and advertising you see.
Visit our Privacy Policy to learn more. By continuing to use the site, you agree to this use of cookies and data.
  • In United Kingdom
  • List of Countries
  • For 7 days
  • Water Temperature
  • Satellite Maps
  • Weather Map
  • Weather Widgets
  • user-avatar
    Login

    Hourly Weather Wabal

    Today, 22 February, Friday

    Time Temperature Precipitation Wind Pressure Humidity
    00:00 +26°C° 0.2 mm 1 mps 751 mmHg 92%
    01:00 +24°C° 0.2 mm 0 mps 750 mmHg 93%
    02:00 +24°C° 0 mm 0 mps 750 mmHg 93%
    03:00 +23°C° 0 mm 0 mps 750 mmHg 93%
    04:00 +23°C° 0 mm 0 mps 750 mmHg 93%
    05:00 +23°C° 0 mm 0 mps 750 mmHg 92%
    06:00 +23°C° 0 mm 0 mps 750 mmHg 91%
    07:00 +23°C° 0 mm 0 mps 750 mmHg 90%
    08:00 +26°C° 0 mm 0 mps 750 mmHg 79%
    09:00 +31°C° 0 mm 1 mps 750 mmHg 68%
    10:00 +34°C° 0 mm 1 mps 750 mmHg 58%
    11:00 +35°C° 0 mm 1 mps 749 mmHg 52%
    12:00 +37°C° 0 mm 1 mps 748 mmHg 46%
    13:00 +39°C° 0 mm 1 mps 748 mmHg 40%
    14:00 +39°C° 0.1 mm 1 mps 748 mmHg 41%
    15:00 +39°C° 0.1 mm 1 mps 748 mmHg 42%
    16:00 +37°C° 0.1 mm 1 mps 747 mmHg 43%
    17:00 +34°C° 2 mm 1 mps 748 mmHg 59%
    18:00 +31°C° 2 mm 1 mps 748 mmHg 75%
    19:00 +28°C° 2 mm 2 mps 749 mmHg 90%
    20:00 +28°C° 2.1 mm 1 mps 749 mmHg 91%
    21:00 +27°C° 2.1 mm 1 mps 750 mmHg 93%
    22:00 +27°C° 2.1 mm 1 mps 751 mmHg 94%
    23:00 +27°C° 1.2 mm 1 mps 751 mmHg 94%

    Tomorrow, 23 February, Saturday

    Time Temperature Precipitation Wind Pressure Humidity
    00:00 +27°C° 1.2 mm 1 mps 750 mmHg 94%
    01:00 +24°C° 1.2 mm 0 mps 750 mmHg 94%
    02:00 +24°C° 0.4 mm 0 mps 750 mmHg 94%
    03:00 +24°C° 0.4 mm 0 mps 750 mmHg 94%
    04:00 +24°C° 0.4 mm 0 mps 750 mmHg 94%
    05:00 +24°C° 0.1 mm 0 mps 750 mmHg 93%
    06:00 +24°C° 0.1 mm 0 mps 750 mmHg 93%
    07:00 +24°C° 0.1 mm 0 mps 750 mmHg 92%
    08:00 +27°C° 0 mm 1 mps 750 mmHg 83%
    09:00 +29°C° 0 mm 1 mps 750 mmHg 73%
    10:00 +31°C° 0 mm 1 mps 750 mmHg 63%
    11:00 +33°C° 0 mm 1 mps 750 mmHg 57%
    12:00 +33°C° 0 mm 0 mps 749 mmHg 50%
    13:00 +35°C° 0 mm 0 mps 749 mmHg 43%
    14:00 +34°C° 0 mm 0 mps 748 mmHg 44%
    15:00 +34°C° 0 mm 0 mps 748 mmHg 45%
    16:00 +33°C° 0 mm 0 mps 748 mmHg 46%
    17:00 +31°C° 0.1 mm 0 mps 748 mmHg 54%
    18:00 +29°C° 0.1 mm 0 mps 749 mmHg 63%
    19:00 +27°C° 0.1 mm 0 mps 749 mmHg 71%
    20:00 +26°C° 0 mm 0 mps 750 mmHg 73%
    21:00 +25°C° 0 mm 0 mps 750 mmHg 75%
    22:00 +26°C° 0 mm 1 mps 751 mmHg 77%
    23:00 +26°C° 0 mm 1 mps 751 mmHg 77%

    Day after tomorrow, 24 February, Sunday

    Time Temperature Precipitation Wind Pressure Humidity
    00:00 +25°C° 0 mm 1 mps 751 mmHg 78%
    01:00 +23°C° 0 mm 0 mps 751 mmHg 78%
    02:00 +25°C° 0 mm 1 mps 750 mmHg 78%
    03:00 +25°C° 0 mm 1 mps 750 mmHg 78%
    04:00 +24°C° 0 mm 1 mps 750 mmHg 79%
    05:00 +24°C° 0 mm 1 mps 750 mmHg 79%
    06:00 +24°C° 0 mm 1 mps 750 mmHg 80%
    07:00 +23°C° 0 mm 0 mps 751 mmHg 80%
    08:00 +27°C° 0 mm 1 mps 751 mmHg 70%
    09:00 +30°C° 0 mm 1 mps 752 mmHg 59%
    10:00 +33°C° 0 mm 1 mps 752 mmHg 48%
    11:00 +34°C° 0 mm 1 mps 751 mmHg 44%
    12:00 +36°C° 0 mm 1 mps 750 mmHg 39%
    13:00 +37°C° 0 mm 1 mps 749 mmHg 35%
    14:00 +37°C° 0 mm 1 mps 749 mmHg 35%
    15:00 +37°C° 0 mm 1 mps 748 mmHg 36%
    16:00 +36°C° 0 mm 1 mps 748 mmHg 37%
    17:00 +34°C° 0 mm 1 mps 748 mmHg 46%
    18:00 +31°C° 0 mm 1 mps 749 mmHg 55%
    19:00 +29°C° 0 mm 1 mps 750 mmHg 65%
    20:00 +28°C° 0 mm 1 mps 750 mmHg 68%
    21:00 +27°C° 0 mm 1 mps 751 mmHg 71%
    22:00 +26°C° 0 mm 1 mps 752 mmHg 74%
    23:00 +26°C° 0 mm 1 mps 751 mmHg 75%

    25 February, Monday

    Time Temperature Precipitation Wind Pressure Humidity
    00:00 +24°C° 0 mm 0 mps 751 mmHg 76%
    01:00 +23°C° 0 mm 0 mps 751 mmHg 77%
    02:00 +23°C° 0 mm 0 mps 751 mmHg 79%
    03:00 +23°C° 0 mm 0 mps 750 mmHg 81%
    04:00 +22°C° 0 mm 0 mps 750 mmHg 82%
    05:00 +22°C° 0 mm 0 mps 750 mmHg 83%
    06:00 +22°C° 0 mm 0 mps 751 mmHg 83%
    07:00 +23°C° 0 mm 0 mps 752 mmHg 83%
    08:00 +27°C° 0 mm 1 mps 752 mmHg 73%
    09:00 +30°C° 0 mm 1 mps 752 mmHg 63%
    10:00 +33°C° 0 mm 1 mps 752 mmHg 52%
    11:00 +34°C° 0 mm 1 mps 751 mmHg 47%
    12:00 +36°C° 0 mm 1 mps 750 mmHg 41%
    13:00 +39°C° 0 mm 1 mps 750 mmHg 36%
    14:00 +39°C° 0 mm 1 mps 749 mmHg 36%
    15:00 +39°C° 0 mm 1 mps 749 mmHg 36%
    16:00 +39°C° 0 mm 1 mps 748 mmHg 36%
    17:00 +35°C° 0 mm 1 mps 749 mmHg 46%
    18:00 +30°C° 0 mm 0 mps 749 mmHg 57%
    19:00 +28°C° 0 mm 0 mps 750 mmHg 67%
    20:00 +27°C° 0 mm 0 mps 751 mmHg 72%
    21:00 +26°C° 0 mm 0 mps 751 mmHg 77%
    22:00 +25°C° 0 mm 0 mps 752 mmHg 81%
    23:00 +24°C° 0 mm 0 mps 752 mmHg 83%

    26 February, Tuesday

    Time Temperature Precipitation Wind Pressure Humidity
    00:00 +24°C° 0 mm 0 mps 751 mmHg 84%
    01:00 +24°C° 0 mm 0 mps 751 mmHg 86%
    02:00 +24°C° 0 mm 0 mps 751 mmHg 86%
    03:00 +23°C° 0 mm 0 mps 750 mmHg 87%
    04:00 +23°C° 0 mm 0 mps 750 mmHg 88%
    05:00 +23°C° 0 mm 0 mps 750 mmHg 88%
    06:00 +24°C° 0 mm 0 mps 751 mmHg 87%
    07:00 +24°C° 0 mm 0 mps 751 mmHg 87%
    08:00 +26°C° 0 mm 0 mps 751 mmHg 76%
    09:00 +29°C° 0 mm 0 mps 752 mmHg 65%
    10:00 +32°C° 0 mm 0 mps 752 mmHg 55%
    11:00 +33°C° 0 mm 0 mps 751 mmHg 50%
    12:00 +36°C° 0 mm 1 mps 750 mmHg 46%
    13:00 +37°C° 0 mm 1 mps 749 mmHg 41%
    14:00 +37°C° 0 mm 1 mps 749 mmHg 43%
    15:00 +37°C° 0 mm 1 mps 748 mmHg 44%
    16:00 +36°C° 0 mm 1 mps 748 mmHg 46%
    17:00 +33°C° 0.3 mm 1 mps 748 mmHg 59%
    18:00 +31°C° 0.3 mm 1 mps 749 mmHg 71%
    19:00 +28°C° 0.3 mm 1 mps 750 mmHg 84%
    20:00 +26°C° 1.3 mm 0 mps 750 mmHg 87%
    21:00 +25°C° 1.3 mm 0 mps 751 mmHg 91%
    22:00 +24°C° 1.3 mm 0 mps 751 mmHg 94%
    23:00 +24°C° 1.1 mm 0 mps 751 mmHg 94%

    27 February, Wednesday

    Time Temperature Precipitation Wind Pressure Humidity
    00:00 +24°C° 1.1 mm 0 mps 751 mmHg 94%
    01:00 +24°C° 1.1 mm 0 mps 750 mmHg 95%
    02:00 +23°C° 0.3 mm 0 mps 750 mmHg 95%
    03:00 +23°C° 0.3 mm 0 mps 750 mmHg 95%
    04:00 +23°C° 0.3 mm 0 mps 750 mmHg 94%
    05:00 +23°C° 0 mm 0 mps 750 mmHg 94%
    06:00 +23°C° 0 mm 0 mps 751 mmHg 94%
    07:00 +23°C° 0 mm 0 mps 751 mmHg 93%
    08:00 +26°C° 0 mm 0 mps 751 mmHg 83%
    09:00 +28°C° 0 mm 0 mps 751 mmHg 73%
    10:00 +30°C° 0 mm 0 mps 751 mmHg 62%
    11:00 +33°C° 0 mm 1 mps 750 mmHg 57%
    12:00 +35°C° 0 mm 1 mps 749 mmHg 53%
    13:00 +36°C° 0 mm 1 mps 749 mmHg 48%
    14:00 +35°C° 0.1 mm 1 mps 748 mmHg 51%
    15:00 +35°C° 0.1 mm 1 mps 748 mmHg 53%
    16:00 +35°C° 0.1 mm 2 mps 748 mmHg 56%
    17:00 +32°C° 0.4 mm 1 mps 748 mmHg 66%
    18:00 +30°C° 0.4 mm 1 mps 749 mmHg 77%
    19:00 +26°C° 0.4 mm 0 mps 749 mmHg 87%
    20:00 +25°C° 1.4 mm 0 mps 750 mmHg 90%
    21:00 +25°C° 1.4 mm 0 mps 751 mmHg 93%
    22:00 +24°C° 1.4 mm 0 mps 751 mmHg 95%
    23:00 +24°C° 0.5 mm 0 mps 751 mmHg 96%
    Show more